This is the latest recevied weather packets stored in our database for station/object N1HRK. If no packets are shown the sender has not sent any weather packets the latest 10 day(s).
| Time | Temp. | Humidity | Pressure | Rain* | Wind** | Luminosity | Snow |
|---|---|---|---|---|---|---|---|
| 1777934524 | 14.44° C | 58% | 1009.7 hPa | 0 mm | - | - | - |
| 1777933924 | 15° C | 58% | 1009.6 hPa | 0 mm | - | - | - |
| 1777933324 | 15.56° C | 55% | 1009.5 hPa | 0 mm | - | - | - |
| 1777932724 | 16.11° C | 53% | 1009.6 hPa | 0 mm | - | - | - |
| 1777932123 | 16.67° C | 47% | 1009.5 hPa | 0 mm | - | - | - |
| 1777931523 | 16.67° C | 46% | 1009.3 hPa | 0 mm | - | - | - |
| 1777930923 | 17.22° C | 46% | 1009.4 hPa | 0 mm | - | - | - |
| 1777930324 | 17.78° C | 47% | 1009.4 hPa | 0 mm | - | - | - |
| 1777929724 | 17.78° C | 44% | 1009.3 hPa | 0 mm | - | - | - |
| 1777929123 | 17.22° C | 48% | 1009.3 hPa | 0 mm | - | - | - |
| 1777928522 | 17.22° C | 45% | 1009.3 hPa | 0 mm | - | - | - |
| 1777927924 | 17.78° C | 45% | 1009.3 hPa | 0 mm | - | - | - |
| 1777927324 | 16.67° C | 44% | 1009.2 hPa | 0 mm | - | - | - |
| 1777926753 | 17.78° C | 43% | 1009 hPa | 0 mm | - | - | - |
| 1777926722 | 17.78° C | 43% | 1009 hPa | 0 mm | - | - | - |
| 1777926124 | 17.78° C | 42% | 1009 hPa | 0 mm | - | - | - |
| 1777925553 | 17.78° C | 44% | 1009.1 hPa | 0 mm | - | - | - |
| 1777925523 | 17.78° C | 44% | 1009 hPa | 0 mm | - | - | - |
| 1777924923 | 17.78° C | 44% | 1009.1 hPa | 0 mm | - | - | - |
| 1777924323 | 17.78° C | 42% | 1009.1 hPa | 0 mm | - | - | - |
| 1777923723 | 18.33° C | 42% | 1009.1 hPa | 0 mm | - | - | - |
| 1777923152 | 18.33° C | 38% | 1009.1 hPa | 0 mm | - | - | - |
| 1777923122 | 18.89° C | 38% | 1009 hPa | 0 mm | - | - | - |
| 1777922554 | 18.89° C | 38% | 1009.1 hPa | 0 mm | - | - | - |
| 1777922523 | 18.89° C | 38% | 1009.1 hPa | 0 mm | - | - | - |
* Rain latest hour (hover to see other rain measurements)
** Current wind speed in m/s (hover to see current wind gust speed)